Date_and_time,latitude,longitude,wind_speed,RelWindDirFrom,WindDirFrom,air_pressure,air_temperature,relative_humidity,Temp,platform_speed_wrt_ground,air_pressure_at_mean_sea_level,platform_orientation
2018-11-25 00:00,50.6304533333333,-96.98077,10.5,16.2,315,988.36,-9.7,77,0.94,0.0,1017.20,360.0
2018-11-25 00:00,50.6304533333333,-96.98077,15.1,15.5,325,988.28,-9.7,77,0.94,0.0,1017.13,360.0
2018-11-25 00:10,50.630455,-96.9807716666667,12.3,16.3,321,988.50,-9.9,77,0.95,0.0,1017.37,360.0
2018-11-25 00:20,50.630455,-96.9807716666667,11.2,16.8,325,988.77,-10.1,79,0.96,0.0,1017.67,360.0
2018-11-25 00:30,50.630455,-96.9807716666667,10.5,14.9,318,988.97,-10.5,80,0.97,0.0,1017.90,360.0
2018-11-25 00:40,50.630455,-96.9807716666667,10.0,14.0,318,989.19,-10.7,80,0.97,0.0,1018.14,360.0
2018-11-25 00:50,50.630455,-96.980765,10.4,15.7,318,989.34,-11.1,80,0.98,0.0,1018.33,360.0
2018-11-25 01:00,50.630455,-96.9807683333333,10.7,15.3,317,989.60,-11.4,81,0.98,0.0,1018.62,0.0
2018-11-25 01:10,50.630455,-96.9807666666667,11.5,16.8,316,989.87,-11.6,81,0.99,0.0,1018.91,0.0
2018-11-25 01:20,50.630455,-96.9807666666667,9.9,14.2,321,990.14,-11.7,82,1.00,0.0,1019.21,0.0
2018-11-25 01:30,50.630455,-96.9807633333333,9.5,15.0,319,990.39,-11.7,82,1.00,0.0,1019.46,0.0
2018-11-25 01:40,50.630455,-96.9807566666667,11.2,16.2,324,990.46,-11.6,82,1.00,0.0,1019.54,0.0
2018-11-25 01:50,50.630455,-96.9807833333333,11.3,17.3,321,990.58,-11.5,82,0.99,0.0,1019.67,0.0
2018-11-25 02:00,50.6304583333333,-96.980765,10.7,15.9,330,990.83,-11.4,82,0.97,0.0,1019.92,360.0
2018-11-25 02:10,50.63046,-96.9807666666667,9.9,16.1,319,990.91,-11.4,83,0.97,0.0,1020.02,360.0
2018-11-25 02:20,50.6304566666667,-96.980765,10.6,16.8,321,991.04,-11.3,82,0.97,0.0,1020.17,360.0
2018-11-25 02:30,50.6304566666667,-96.9807633333333,10.0,15.1,324,991.20,-11.2,82,0.97,0.0,1020.35,360.0
2018-11-25 02:40,50.6304583333333,-96.9807633333333,9.4,15.3,320,991.29,-11.2,82,0.98,0.0,1020.45,360.0
2018-11-25 02:50,50.6304583333333,-96.9807616666667,9.9,14.3,323,991.42,-11.1,81,0.98,0.0,1020.60,360.0
2018-11-25 03:00,50.6304583333333,-96.9807616666667,9.1,13.3,322,991.55,-11.1,82,0.98,0.0,1020.74,12.6
2018-11-25 03:10,50.6304583333333,-96.9807633333333,9.8,14.2,317,991.59,-11.1,82,0.96,0.0,1020.79,12.6
2018-11-25 03:20,50.6304616666667,-96.9807566666667,10.1,15.6,322,991.61,-11.0,82,0.95,0.0,1020.81,12.6
2018-11-25 03:30,50.6304483333333,-96.98075,10.1,16.5,323,991.56,-10.9,82,0.95,0.0,1020.75,12.6
2018-11-25 03:40,50.6304516666667,-96.9807616666667,9.8,14.7,319,991.55,-11.0,82,0.96,0.0,1020.74,12.6
2018-11-25 03:50,50.6304516666667,-96.9807633333333,9.3,14.9,324,991.71,-10.9,82,0.96,0.0,1020.89,12.6
2018-11-25 04:00,50.6304516666667,-96.980765,9.4,15.2,322,991.81,-10.9,82,0.97,0.0,1020.99,90.0
2018-11-25 04:10,50.6304533333333,-96.9807633333333,8.9,15.6,322,991.93,-10.9,83,0.97,0.0,1021.11,90.0
2018-11-25 04:20,50.6304516666667,-96.9807633333333,7.8,11.2,322,992.02,-10.9,83,0.98,0.0,1021.20,90.0
2018-11-25 04:30,50.6304533333333,-96.9807633333333,7.4,12.1,317,992.12,-10.9,84,0.97,0.0,1021.30,90.0
2018-11-25 04:40,50.6304533333333,-96.9807566666667,7.4,12.3,320,992.21,-10.9,84,0.97,0.0,1021.39,90.0
2018-11-25 04:50,50.6304533333333,-96.980755,7.0,11.4,319,992.38,-10.9,85,0.96,0.0,1021.56,90.0
2018-11-25 05:00,50.630455,-96.980755,8.3,12.4,319,992.47,-10.9,85,0.96,0.0,1021.65,167.4
2018-11-25 05:10,50.630455,-96.9807566666667,8.0,11.4,324,992.64,-10.9,85,0.96,0.0,1021.82,167.4
2018-11-25 05:20,50.630455,-96.9807583333333,8.2,13.0,320,992.78,-10.8,85,0.96,0.0,1021.96,167.4
2018-11-25 05:30,50.6304566666667,-96.9807583333333,9.2,12.7,320,992.76,-10.8,84,0.93,0.0,1021.93,167.4
2018-11-25 05:40,50.6304566666667,-96.9807583333333,8.7,13.2,312,992.89,-10.8,84,0.91,0.0,1022.07,167.4
2018-11-25 05:50,50.630455,-96.9807583333333,6.8,11.3,315,993.04,-10.7,85,0.91,0.0,1022.22,167.4
2018-11-25 06:00,50.630455,-96.98076,8.3,12.4,317,993.04,-10.7,85,0.91,0.0,1022.22,360.0
2018-11-25 06:10,50.630455,-96.98076,10.1,15.4,323,993.08,-10.7,85,0.92,0.0,1022.26,360.0
2018-11-25 06:20,50.6304533333333,-96.98076,9.9,15.9,326,993.31,-10.6,84,0.93,0.0,1022.49,360.0
2018-11-25 06:30,50.630435,-96.98077,10.0,15.9,326,993.42,-10.6,85,0.93,0.0,1022.61,360.0
2018-11-25 06:40,50.6304516666667,-96.9807633333333,11.1,16.2,333,993.49,-10.7,84,0.91,0.0,1022.68,360.0
2018-11-25 06:50,50.630445,-96.9807633333333,8.4,12.1,329,993.74,-10.7,85,0.89,0.0,1022.93,360.0
2018-11-25 07:00,50.6304483333333,-96.98077,10.1,14.4,333,993.81,-10.6,85,0.89,0.0,1023.01,360.0
2018-11-25 07:10,50.6304516666667,-96.9807733333333,10.1,13.4,324,993.85,-10.7,85,0.90,0.0,1023.05,360.0
2018-11-25 07:20,50.6304516666667,-96.98077,10.2,15.2,320,993.88,-10.8,84,0.91,0.0,1023.07,360.0
2018-11-25 07:30,50.6304516666667,-96.980765,10.4,15.4,317,994.03,-10.9,84,0.92,0.0,1023.24,360.0
2018-11-25 07:40,50.6304533333333,-96.98077,10.0,16.4,322,994.17,-10.9,84,0.92,0.0,1023.39,360.0
2018-11-25 07:50,50.6304533333333,-96.9807683333333,10.1,15.3,320,994.12,-11.0,84,0.92,0.0,1023.34,360.0
2018-11-25 08:00,50.6304566666667,-96.98077,8.7,13.4,320,994.16,-11.1,85,0.92,0.0,1023.38,270.0
2018-11-25 08:10,50.6304566666667,-96.9807683333333,10.0,16.2,318,994.11,-11.0,85,0.91,0.0,1023.32,270.0
2018-11-25 08:20,50.6304566666667,-96.9807683333333,9.5,13.2,313,994.32,-11.0,86,0.91,0.0,1023.53,270.0
2018-11-25 08:30,50.63046,-96.980765,9.2,13.5,319,994.40,-11.1,86,0.91,0.0,1023.62,270.0
2018-11-25 08:40,50.6304633333333,-96.980775,9.5,14.9,316,994.57,-11.2,85,0.91,0.0,1023.81,270.0
2018-11-25 08:50,50.63046,-96.9807666666667,9.8,16.8,314,994.66,-11.4,85,0.92,0.0,1023.91,270.0
2018-11-25 09:00,50.6304583333333,-96.9807666666667,9.7,14.7,313,994.65,-11.5,85,0.92,0.0,1023.90,347.4
2018-11-25 09:10,50.6304566666667,-96.9807683333333,10.5,15.6,316,994.62,-11.5,84,0.93,0.0,1023.88,347.4
2018-11-25 09:20,50.6304583333333,-96.9807666666667,11.2,18.3,321,994.61,-11.6,84,0.93,0.0,1023.89,347.4
2018-11-25 09:30,50.6304583333333,-96.9807666666667,9.9,16.8,320,994.71,-11.7,84,0.93,0.0,1024.00,347.4
2018-11-25 09:40,50.6304583333333,-96.9807666666667,9.8,13.9,320,994.88,-11.8,84,0.93,0.0,1024.18,347.4
2018-11-25 09:50,50.6304633333333,-96.980775,8.9,12.7,316,995.04,-11.8,85,0.93,0.0,1024.36,347.4
2018-11-25 10:00,50.6304633333333,-96.980785,7.7,12.0,319,995.25,-11.8,85,0.93,0.0,1024.56,328.9
2018-11-25 10:10,50.6304533333333,-96.9807816666667,8.8,12.4,316,995.45,-11.7,85,0.93,0.0,1024.76,328.9
2018-11-25 10:20,50.6304583333333,-96.9807733333333,7.5,10.9,319,995.67,-11.6,85,0.93,0.0,1024.98,328.9
2018-11-25 10:30,50.6304616666667,-96.98077,8.0,12.3,320,995.82,-11.6,85,0.93,0.0,1025.15,328.9
2018-11-25 10:40,50.6304616666667,-96.9807683333333,7.9,13.0,327,995.88,-11.5,85,0.93,0.0,1025.21,328.9
2018-11-25 10:50,50.6304616666667,-96.9807683333333,10.1,14.2,342,995.91,-11.5,84,0.94,0.0,1025.25,328.9
2018-11-25 11:00,50.6304583333333,-96.9807483333333,9.5,15.1,337,995.97,-11.4,84,0.93,0.0,1025.31,54.7
2018-11-25 11:10,50.6304733333333,-96.98078,8.3,11.5,338,996.07,-11.4,85,0.93,0.0,1025.41,54.7
2018-11-25 11:20,50.630465,-96.9807733333333,8.3,11.5,334,996.16,-11.5,84,0.93,0.0,1025.52,54.7
2018-11-25 11:30,50.6304633333333,-96.9807733333333,8.7,13.0,339,996.21,-11.5,84,0.93,0.0,1025.58,54.7
2018-11-25 11:40,50.6304616666667,-96.9807733333333,9.1,12.5,341,996.32,-11.6,84,0.93,0.0,1025.70,54.7
2018-11-25 11:50,50.6304633333333,-96.9807733333333,7.8,11.7,336,996.46,-11.7,84,0.93,0.0,1025.84,54.7
2018-11-25 12:00,50.6304616666667,-96.9807716666667,7.4,11.7,331,996.49,-11.7,84,0.93,0.0,1025.87,347.4
2018-11-25 12:10,50.6304633333333,-96.980775,5.8,9.4,320,996.69,-11.8,83,0.93,0.0,1026.07,347.4
2018-11-25 12:20,50.6304633333333,-96.9807733333333,6.8,12.4,325,996.80,-11.7,83,0.92,0.0,1026.18,347.4
2018-11-25 12:30,50.6304633333333,-96.9807733333333,7.5,13.3,324,996.93,-11.7,82,0.93,0.0,1026.32,347.4
2018-11-25 12:40,50.6304883333333,-96.9808033333333,8.2,11.1,327,996.99,-11.7,81,0.93,0.0,1026.37,347.4
2018-11-25 12:50,50.6304683333333,-96.9808133333333,8.7,13.3,332,997.05,-11.7,81,0.93,0.0,1026.44,347.4
2018-11-25 13:00,50.6304633333333,-96.980785,10.8,14.7,348,997.22,-11.8,83,0.93,0.0,1026.61,0.0
2018-11-25 13:10,50.6304616666667,-96.9807766666667,8.5,14.1,340,997.40,-11.9,82,0.93,0.0,1026.81,0.0
2018-11-25 13:20,50.6304633333333,-96.9807766666667,7.6,16.1,336,997.55,-11.9,81,0.93,0.0,1026.96,0.0
2018-11-25 13:30,50.6304683333333,-96.9807983333333,10.8,14.2,337,997.49,-12.0,80,0.93,0.0,1026.92,0.0
2018-11-25 13:40,50.6304566666667,-96.9807716666667,7.9,11.9,317,997.60,-12.1,80,0.93,0.0,1027.03,0.0
2018-11-25 13:50,50.63046,-96.9807733333333,6.9,9.4,320,997.67,-12.0,81,0.93,0.0,1027.11,0.0
2018-11-25 14:00,50.6304616666667,-96.9807716666667,6.9,10.7,335,997.81,-12.0,83,0.93,0.0,1027.25,293.6
2018-11-25 14:10,50.6304716666667,-96.98076,6.4,10.1,329,997.98,-12.0,83,0.93,0.0,1027.42,293.6
2018-11-25 14:20,50.630465,-96.98076,7.2,13.3,328,998.12,-12.0,82,0.93,0.0,1027.57,293.6
2018-11-25 14:30,50.6304633333333,-96.98076,8.1,12.6,326,998.14,-12.1,80,0.93,0.0,1027.59,293.6
2018-11-25 14:40,50.6304633333333,-96.98076,7.2,10.9,340,998.36,-12.0,81,0.92,0.0,1027.81,293.6
2018-11-25 14:50,50.6304633333333,-96.9807616666667,8.8,13.5,339,998.34,-12.0,80,0.92,0.0,1027.79,293.6
2018-11-25 15:00,50.6304633333333,-96.9807616666667,9.3,12.9,325,998.24,-12.1,79,0.93,0.0,1027.71,90.0
2018-11-25 15:10,50.6304633333333,-96.9807633333333,8.6,12.3,331,998.22,-12.1,81,0.93,0.0,1027.69,90.0
2018-11-25 15:20,50.6305,-96.9807833333333,9.5,11.8,349,998.36,-12.1,84,0.93,0.0,1027.84,90.0
2018-11-25 15:30,50.6304716666667,-96.9807683333333,8.0,10.9,343,998.47,-12.2,82,0.92,0.0,1027.96,90.0
2018-11-25 15:40,50.630465,-96.9807683333333,7.9,11.6,345,998.58,-12.3,81,0.92,0.0,1028.08,90.0
2018-11-25 15:50,50.6304633333333,-96.9807683333333,8.9,13.6,335,998.61,-12.4,80,0.92,0.0,1028.10,90.0
2018-11-25 16:00,50.630465,-96.98077,8.1,12.7,333,998.61,-12.5,79,0.92,0.0,1028.12,68.5
2018-11-25 16:10,50.630465,-96.9807716666667,8.4,12.8,330,998.60,-12.5,79,0.92,0.0,1028.11,68.5
2018-11-25 16:20,50.6304633333333,-96.98077,8.9,11.9,347,998.66,-12.4,80,0.91,0.0,1028.17,68.5
2018-11-25 16:30,50.6304633333333,-96.9807683333333,6.4,10.6,327,998.75,-12.4,80,0.91,0.0,1028.25,68.5
2018-11-25 16:40,50.630455,-96.98077,7.5,10.9,295,998.65,-12.6,78,0.91,0.0,1028.16,68.5
2018-11-25 16:50,50.6304683333333,-96.9807616666667,7.6,10.7,297,998.61,-12.5,78,0.91,0.0,1028.12,68.5
2018-11-25 17:00,50.6304783333333,-96.9807583333333,8.0,13.1,299,998.55,-12.5,77,0.92,0.0,1028.07,32.5
2018-11-25 17:10,50.6304716666667,-96.9807683333333,7.9,12.6,305,998.54,-12.4,77,0.92,0.0,1028.05,32.5
2018-11-25 17:20,50.6304366666667,-96.9807483333333,8.1,11.5,308,998.58,-12.4,75,0.92,0.0,1028.09,32.5
2018-11-25 17:30,50.630455,-96.9807666666667,8.5,12.1,305,998.54,-12.2,73,0.92,0.0,1028.05,32.5
2018-11-25 17:40,50.630455,-96.9807683333333,8.3,11.1,342,998.50,-12.0,76,0.92,0.0,1027.99,32.5
2018-11-25 17:50,50.630455,-96.9807666666667,8.3,12.0,338,998.43,-11.9,76,0.92,0.0,1027.92,32.5
2018-11-25 18:00,50.630455,-96.98077,7.2,11.3,336,998.44,-11.8,75,0.92,0.0,1027.93,360.0
2018-11-25 18:10,50.6304716666667,-96.9807516666667,6.9,12.1,314,998.38,-11.8,73,0.92,0.0,1027.86,360.0
2018-11-25 18:20,50.6304616666667,-96.9807616666667,8.1,12.6,312,998.28,-11.8,73,0.91,0.0,1027.76,360.0
2018-11-25 18:30,50.6304583333333,-96.9807666666667,8.5,14.1,321,998.23,-11.7,73,0.91,0.0,1027.71,360.0
2018-11-25 18:40,50.63046,-96.9807683333333,7.9,12.3,314,998.25,-11.5,71,0.91,0.0,1027.72,360.0
2018-11-25 18:50,50.63046,-96.9807683333333,6.9,11.8,307,998.26,-11.3,70,0.91,0.0,1027.72,360.0
2018-11-25 19:00,50.63046,-96.9807683333333,7.9,11.2,330,998.21,-11.0,69,0.91,0.0,1027.64,360.0
2018-11-25 19:10,50.6304616666667,-96.98077,8.6,13.1,344,998.14,-10.9,70,0.91,0.0,1027.56,360.0
2018-11-25 19:20,50.6304616666667,-96.9807683333333,8.3,12.2,349,998.15,-10.7,69,0.91,0.0,1027.55,360.0
2018-11-25 19:30,50.6304633333333,-96.98077,7.9,11.6,350,998.07,-10.4,69,0.91,0.0,1027.44,360.0
2018-11-25 19:40,50.630475,-96.9807533333333,9.4,12.4,354,998.00,-10.5,69,0.91,0.0,1027.37,360.0
2018-11-25 19:50,50.6304683333333,-96.9807666666667,10.2,13.4,338,997.93,-10.6,68,0.91,0.0,1027.29,360.0
2018-11-25 20:00,50.6304566666667,-96.9807583333333,9.6,14.0,342,997.95,-10.5,67,0.91,0.0,1027.31,360.0
2018-11-25 20:10,50.6304616666667,-96.9807616666667,10.5,13.8,340,997.95,-10.4,66,0.90,0.0,1027.31,360.0
2018-11-25 20:20,50.6304583333333,-96.98076,10.1,13.2,350,998.04,-10.5,68,0.90,0.0,1027.39,360.0
2018-11-25 20:30,50.6304583333333,-96.98076,7.8,11.7,333,998.04,-10.5,67,0.90,0.0,1027.38,360.0
2018-11-25 20:40,50.6304583333333,-96.9807583333333,5.8,10.9,315,998.08,-10.3,67,0.91,0.0,1027.41,360.0
2018-11-25 20:50,50.630445,-96.9807666666667,6.3,10.7,321,998.12,-10.4,67,0.91,0.0,1027.43,360.0
2018-11-25 21:00,50.6304633333333,-96.9807816666667,6.5,10.0,307,998.13,-10.4,67,0.91,0.0,1027.44,317.2
2018-11-25 21:10,50.6304583333333,-96.9807716666667,8.0,11.6,335,998.18,-10.3,67,0.91,0.0,1027.47,317.2
2018-11-25 21:20,50.6304583333333,-96.9807666666667,7.6,12.2,326,998.29,-10.6,66,0.91,0.0,1027.59,317.2
2018-11-25 21:30,50.6304566666667,-96.9807666666667,6.7,9.1,313,998.43,-10.9,68,0.92,0.0,1027.75,317.2
2018-11-25 21:40,50.6304583333333,-96.9807666666667,6.5,9.1,315,998.57,-11.1,70,0.92,0.0,1027.91,317.2
2018-11-25 21:50,50.6304583333333,-96.9807666666667,5.2,8.7,310,998.70,-11.0,70,0.92,0.0,1028.04,317.2
2018-11-25 22:00,50.6304583333333,-96.9807666666667,4.7,6.9,313,998.79,-11.1,70,0.92,0.0,1028.13,0.0
2018-11-25 22:10,50.6304583333333,-96.9807683333333,5.7,9.0,302,998.85,-11.1,69,0.93,0.0,1028.19,0.0
2018-11-25 22:20,50.6304483333333,-96.9807616666667,5.1,9.2,304,998.93,-11.1,70,0.93,0.0,1028.28,0.0
2018-11-25 22:30,50.630435,-96.9807683333333,5.1,8.7,311,998.89,-11.3,73,0.93,0.0,1028.24,0.0
2018-11-25 22:40,50.6304583333333,-96.9807666666667,6.3,9.7,321,998.95,-11.3,74,0.93,0.0,1028.30,0.0
2018-11-25 22:50,50.6304433333333,-96.9807666666667,6.6,9.6,334,998.99,-11.3,76,0.93,0.0,1028.35,0.0
2018-11-25 23:00,50.6304533333333,-96.9807733333333,7.1,10.4,334,998.97,-11.3,74,0.94,0.0,1028.32,270.0
2018-11-25 23:10,50.6304533333333,-96.9807716666667,7.9,11.1,334,998.92,-11.5,72,0.94,0.0,1028.30,270.0
2018-11-25 23:20,50.6304566666667,-96.9807766666667,8.9,11.5,346,998.99,-11.6,73,0.94,0.0,1028.39,270.0
2018-11-25 23:30,50.630455,-96.9807666666667,7.2,12.2,334,999.04,-11.7,73,0.94,0.0,1028.46,270.0
2018-11-25 23:40,50.6304333333333,-96.98073,7.1,11.4,331,999.06,-11.9,73,0.93,0.0,1028.49,270.0
